Flag for Japan Weather past 2 weeks in Yokohama, Japan

Now
81 °F

Broken clouds.


Feels Like: 85 °F
Forecast: 72 / 80 °F
Wind: 15 mph from Southeast

Location: Tokyo International Airport

Current Time: Sep 5, 2015 at 5:16:01 PM

Latest Report: Sep 5, 2015 at 4:30 PM


Visibility: N/A

Pressure: 29.80 "Hg

Humidity: 74%

Dew point: 72 °F

Location of YokohamaLocation

Historic Weather in Yokohama — Graph

°F

Yokohama temperature yesterday

Maximum temperature yesterday: 84 °F (at 12:30 PM)
Minimum temperature yesterday: 73 °F (at 2:00 AM)
Average temperature yesterday: 79 °F

Past Weeks' High & Low Weather Summary

 TemperatureHumidityPressure
High88 °F (Aug 22, 10:30 AM)100% (Aug 26, 4:30 AM)30.01 "Hg (Aug 26, 4:30 AM)
Low66 °F (Aug 26, 12:00 AM)58% (Aug 24, 12:30 PM)29.50 "Hg (Aug 22, 2:30 PM)
Average76 °F83%29.80 "Hg
* Reported Aug 21 4:00 PM — Sep 5 4:00 PM, Yokohama, Weather by CustomWeather, © 2015

Note: Actual official high and low records may vary slightly from our data, if they occured in-between our weather recording intervals... More about our weather records

Advertising

Yokohama weather history for previous 24 hours

 ConditionsComfort  
Time TempWeatherWind HumidityBarometerVisibility
4:00 PM
Sat, Sep 5
81 °FPartly sunny.15 mph74%29.80 "HgN/A
3:30 PM81 °FPartly sunny.9 mph70%29.80 "HgN/A
3:00 PM82 °FPartly sunny.5 mph66%29.80 "HgN/A
2:30 PM82 °FPartly sunny.5 mph66%29.80 "HgN/A
2:00 PM82 °FPartly sunny.6 mph66%29.80 "HgN/A
1:30 PM82 °FPartly sunny.6 mph66%29.80 "HgN/A
1:00 PM82 °FPartly sunny.6 mph62%29.83 "HgN/A
12:30 PM82 °FBroken clouds.7 mph62%29.83 "HgN/A
12:00 PM81 °FPartly sunny.7 mph66%29.83 "HgN/A
11:30 AM81 °FPartly sunny.10 mph66%29.86 "HgN/A
11:00 AM81 °FBroken clouds.9 mph66%29.86 "HgN/A
10:30 AM81 °FPartly sunny.9 mph66%29.86 "HgN/A
10:00 AM79 °FBroken clouds.9 mph70%29.86 "HgN/A
9:30 AM77 °FPartly sunny.10 mph74%29.86 "HgN/A
9:00 AM77 °FPartly sunny.12 mph74%29.86 "HgN/A
8:30 AM77 °FPartly sunny.10 mph69%29.86 "HgN/A
8:00 AM77 °FPartly sunny.9 mph74%29.86 "HgN/A
7:30 AM75 °FPartly sunny.9 mph78%29.86 "HgN/A
6:30 AM75 °FPartly sunny.8 mph83%29.83 "HgN/A
6:00 AM75 °FBroken clouds.9 mph83%29.83 "HgN/A
5:30 AM75 °FBroken clouds.9 mph83%29.83 "HgN/A
5:00 AM75 °FPartly cloudy.10 mph83%29.83 "HgN/A
4:30 AM75 °FPartly cloudy.10 mph83%29.83 "HgN/A
4:00 AM75 °FPartly cloudy.10 mph89%29.83 "HgN/A
3:30 AM75 °FPartly cloudy.10 mph89%29.80 "Hg6 mi
3:00 AM75 °FPartly cloudy.10 mph89%29.80 "Hg6 mi
2:30 AM75 °FPartly cloudy.10 mph89%29.80 "HgN/A
2:00 AM75 °FPartly cloudy.12 mph89%29.80 "HgN/A
1:30 AM77 °FPassing clouds.12 mph83%29.77 "HgN/A
1:00 AM77 °FClear.8 mph79%29.77 "Hg10 mi
12:30 AM77 °FClear.8 mph74%29.77 "Hg10 mi
12:00 AM77 °FClear.5 mph74%29.77 "Hg10 mi
11:30 PM
Fri, Sep 4
77 °FClear.7 mph74%29.77 "Hg10 mi
11:00 PM77 °FClear.6 mph83%29.77 "Hg10 mi
10:30 PM79 °FClear.2 mph79%29.77 "Hg10 mi
10:00 PM79 °FClear.1 mph79%29.77 "Hg10 mi
9:30 PM79 °FClear.2 mph79%29.74 "Hg10 mi
9:00 PM81 °FClear.7 mph74%29.74 "Hg10 mi
8:30 PM81 °FPassing clouds.8 mph74%29.74 "HgN/A
8:00 PM81 °FPassing clouds.10 mph74%29.74 "HgN/A
7:30 PM79 °FPassing clouds.13 mph79%29.74 "HgN/A
7:00 PM81 °FPassing clouds.12 mph79%29.74 "HgN/A
6:30 PM81 °FPassing clouds.13 mph74%29.71 "HgN/A
6:00 PM81 °FScattered clouds.13 mph74%29.71 "HgN/A
5:30 PM82 °FScattered clouds.16 mph70%29.71 "HgN/A
5:00 PM82 °FScattered clouds.17 mph70%29.71 "HgN/A
Weather by CustomWeather, © 2015

See weather overviewHow to use our weather pages